Location: Unspecified
(48.8656°N, 0.0000°E)
Time: 14:07:04
(UTC+00:00)

Vanguard 1 - Pass Details

Date: 21 June 2019
Orbit: 655 x 3829 km, 34.2° (Epoch: 16 August)

Event Time Altitude Azimuth Distance (km) Brightness Sun altitude
Rises 07:53:05 0° 265° (W) 5,161 13.3 35.6°
Reaches altitude 10° 07:58:34 10° 247° (WSW) 3,508 12.6 36.4°
Maximum altitude 08:03:07 16° 214° (SW) 2,567 12.1 37.2°
Drops below altitude 10° 08:06:40 10° 178° (S) 2,601 12.5 37.8°
Sets 08:09:49 0° 154° (SSE) 3,255 13.1 38.3°
